Starlink 30810

operational
NORAD ID: 58178 Int'l Des: 2023-167 Owner: SPXS Country: US Constellation: starlink
LEOCIRCULAR

Über Starlink 30810

Beschreibung wird geladen...

Live-Position

3D-Globus wird geladen...

Nächste Überflüge

Höhenverlauf

Altitude vs Time

uPlot chart will show altitude changes over time

Zweizeiliger Elementsatz

1 58178U 23167D 25257.34910397 .00000068 00000-0 20109-4 0 9995
2 58178 43.0053 24.5797 0001189 268.9929 91.0777 15.02534568104425
Epoch: 14. Sept. 2025 • Age: 31 hours

Aktueller Status

Höhe 559.6 km
Geschwindigkeit 7.58 km/s
Subsatellitenpunkt -4.56°S, 25.23°W
Startdatum 30. Okt. 2023
Alter 1.8 years
Typ internet

Technische Details

Klassifizierung Payload
Masse 730.00 kg
Trockenmasse 700.00 kg
Gesamtmasse 730.00 kg
Länge 0.30 m
Durchmesser 4.10 m
Spannweite 29.00 m
Form Box + pan
Hersteller SPXS
Bus-Typ Starlink V2M
Phasenstatus In Orbit
Besitzer/Staat SPXS/US

Große Konstellationen

Loading constellations...